Weather History for K96D - April, 2013

Change the Weather History Date:

Saturday, April 27, 2013

  Actual Average (KGAF) Record (KGAF)
Temperature  
Mean Temperature 52 °F -  
Max Temperature 57 °F 60 °F 97 °F (1952)
Min Temperature 48 °F 36 °F 15 °F (1956)
Degree Days  
Heating Degree Days 12    
Growing Degree Days 2 (Base 50)    
Moisture  
Dew Point 36 °F    
Average Humidity 53    
Maximum Humidity 62    
Minimum Humidity 41    
Precipitation  
Precipitation 0.00 in - - ()
Sea Level Pressure  
Sea Level Pressure 29.75 in    
Wind  
Wind Speed 15 mph (SW)    
Max Wind Speed 25 mph    
Max Gust Speed 37 mph    
Visibility 10 miles    
Events      
Averages and records for this station are not official NWS values.
T = Trace of Precipitation, MM = Missing Value Source: NWS Daily Summary

Daily Weather History Graph

Daily Weather History Graph

Search for Another Location

Airport or City:

Trip Planner

Search our weather history database for the weather conditions in past years. The results will help you decide how hot, cold, wet, or windy it might be!

Date:

Astronomy

Apr. 27, 2013 Rise Set
Actual Time 6:17 AM CDT 8:41 PM CDT
Civil Twilight 5:42 AM CDT 9:17 PM CDT
Nautical Twilight 4:58 AM CDT 10:01 PM CDT
Astronomical Twilight 4:07 AM CDT 10:52 PM CDT
Moon 11:22 PM CDT (4/27) 7:28 AM CDT (4/27)
Length of Visible Light 15h 34m
Length of Day
14h 24m
Waning Gibbous, 95% of the Moon is Illuminated
Apr 27
Waning Gibbous
May 2
Last Quarter
May 9
New
May 17
First Quarter
May 24
Full

Hourly Weather History & Observations

Time (CDT) Temp. Dew Point Humidity Pressure Visibility Wind Dir Wind Speed Gust Speed Precip Events Conditions
12:15 AM 50.0 °F 32.0 °F 50% 29.94 in 10.0 mi SSW 11.5 mph - N/A   Scattered Clouds
12:35 AM 50.0 °F 32.0 °F 50% 29.94 in 10.0 mi SSW 11.5 mph - N/A   Mostly Cloudy
12:55 AM 48.2 °F 33.8 °F 58% 29.93 in 10.0 mi SSW 13.8 mph - N/A   Scattered Clouds
1:15 AM 48.2 °F 33.8 °F 58% 29.92 in 10.0 mi SSW 13.8 mph - N/A   Scattered Clouds
1:35 AM 48.2 °F 33.8 °F 58% 29.92 in 10.0 mi SSW 11.5 mph - N/A   Scattered Clouds
1:55 AM 50.0 °F 32.0 °F 50% 29.91 in 10.0 mi SSW 13.8 mph 18.4 mph N/A   Scattered Clouds
2:15 AM 53.6 °F 32.0 °F 44% 29.90 in 10.0 mi SSW 17.3 mph 28.8 mph N/A   Scattered Clouds
2:35 AM 53.6 °F 33.8 °F 47% 29.89 in 10.0 mi SW 19.6 mph 31.1 mph N/A   Partly Cloudy
2:55 AM 53.6 °F 33.8 °F 47% 29.87 in 10.0 mi SW 19.6 mph 32.2 mph N/A   Partly Cloudy
3:15 AM 53.6 °F 32.0 °F 44% 29.86 in 10.0 mi SW 20.7 mph 27.6 mph N/A   Partly Cloudy
3:35 AM 53.6 °F 32.0 °F 44% 29.85 in 10.0 mi SW 20.7 mph 29.9 mph N/A   Clear
3:55 AM 55.4 °F 32.0 °F 41% 29.84 in 10.0 mi SW 25.3 mph 36.8 mph N/A   Partly Cloudy
4:15 AM 53.6 °F 32.0 °F 44% 29.84 in 10.0 mi SW 21.9 mph 33.4 mph N/A   Partly Cloudy
4:35 AM 53.6 °F 30.2 °F 41% 29.83 in 10.0 mi SW 21.9 mph 31.1 mph N/A   Partly Cloudy
4:55 AM 53.6 °F 30.2 °F 41% 29.82 in 10.0 mi SW 25.3 mph 36.8 mph N/A   Partly Cloudy
5:15 AM 53.6 °F 32.0 °F 44% 29.82 in 10.0 mi SW 21.9 mph 35.7 mph N/A   Partly Cloudy
6:35 AM 48.2 °F 32.0 °F 54% 29.80 in 10.0 mi SW 21.9 mph 29.9 mph N/A   Partly Cloudy
6:55 AM 48.2 °F 32.0 °F 54% 29.79 in 10.0 mi SW 23.0 mph 32.2 mph N/A   Partly Cloudy
7:15 AM 48.2 °F 32.0 °F 54% 29.79 in 10.0 mi SW 18.4 mph 28.8 mph N/A   Clear
7:35 AM 48.2 °F 32.0 °F 54% 29.78 in 10.0 mi SW 18.4 mph 27.6 mph N/A   Clear
7:55 AM 48.2 °F 32.0 °F 54% 29.78 in 10.0 mi SW 16.1 mph 27.6 mph N/A   Clear
8:15 AM 50.0 °F 32.0 °F 50% 29.78 in 10.0 mi SW 13.8 mph 26.5 mph N/A   Clear
8:35 AM 50.0 °F 32.0 °F 50% 29.78 in 10.0 mi WSW 13.8 mph 21.9 mph N/A   Clear
8:55 AM 50.0 °F 32.0 °F 50% 29.77 in 10.0 mi SW 13.8 mph 18.4 mph N/A   Partly Cloudy
9:15 AM 50.0 °F 32.0 °F 50% 29.75 in 10.0 mi SW 16.1 mph 21.9 mph N/A   Partly Cloudy
9:35 AM 51.8 °F 32.0 °F 47% 29.75 in 10.0 mi SW 20.7 mph 28.8 mph N/A   Clear
9:55 AM 51.8 °F 32.0 °F 47% 29.74 in 10.0 mi SW 18.4 mph 28.8 mph N/A   Clear
10:15 AM 51.8 °F 33.8 °F 50% 29.74 in 10.0 mi SW 16.1 mph 28.8 mph N/A   Clear
10:35 AM 50.0 °F 33.8 °F 54% 29.74 in 10.0 mi WSW 13.8 mph 24.2 mph N/A   Clear
10:55 AM 51.8 °F 35.6 °F 54% 29.73 in 10.0 mi SW 16.1 mph 23.0 mph N/A   Clear
11:15 AM 53.6 °F 35.6 °F 51% 29.73 in 10.0 mi WSW 17.3 mph 27.6 mph N/A   Clear
11:35 AM 53.6 °F 35.6 °F 51% 29.73 in 10.0 mi WSW 17.3 mph 24.2 mph N/A   Partly Cloudy
11:55 AM 51.8 °F 35.6 °F 54% 29.72 in 10.0 mi WSW 17.3 mph 27.6 mph N/A   Partly Cloudy
12:15 PM 53.6 °F 37.4 °F 54% 29.72 in 10.0 mi WSW 20.7 mph 27.6 mph N/A   Clear
12:35 PM 53.6 °F 37.4 °F 54% 29.72 in 10.0 mi WSW 16.1 mph 25.3 mph N/A   Partly Cloudy
12:55 PM 53.6 °F 37.4 °F 54% 29.72 in 10.0 mi WSW 17.3 mph 27.6 mph N/A   Partly Cloudy
1:15 PM 53.6 °F 37.4 °F 54% 29.72 in 10.0 mi WSW 16.1 mph 27.6 mph N/A   Clear
1:35 PM 55.4 °F 39.2 °F 54% 29.71 in 10.0 mi WSW 15.0 mph 25.3 mph N/A   Clear
1:55 PM 55.4 °F 39.2 °F 54% 29.71 in 10.0 mi WSW 13.8 mph 24.2 mph N/A   Clear
2:15 PM 57.2 °F 37.4 °F 48% 29.70 in 10.0 mi WSW 16.1 mph 25.3 mph N/A   Clear
2:35 PM 55.4 °F 39.2 °F 54% 29.71 in 10.0 mi WSW 16.1 mph 25.3 mph N/A   Clear
2:55 PM 55.4 °F 39.2 °F 54% 29.72 in 10.0 mi West 12.7 mph 26.5 mph N/A   Clear
3:15 PM 55.4 °F 39.2 °F 54% 29.71 in 10.0 mi WSW 13.8 mph 19.6 mph N/A   Clear
3:35 PM 55.4 °F 39.2 °F 54% 29.70 in 10.0 mi WSW 18.4 mph 23.0 mph N/A   Clear
3:55 PM 55.4 °F 37.4 °F 51% 29.70 in 10.0 mi West 16.1 mph 23.0 mph N/A   Clear
4:15 PM 55.4 °F 39.2 °F 54% 29.71 in 10.0 mi WSW 12.7 mph 23.0 mph N/A   Clear
4:35 PM 55.4 °F 37.4 °F 51% 29.70 in 10.0 mi WSW 12.7 mph 21.9 mph N/A   Clear
4:55 PM 55.4 °F 39.2 °F 54% 29.70 in 10.0 mi WSW 12.7 mph 24.2 mph N/A   Clear
5:15 PM 55.4 °F 39.2 °F 54% 29.69 in 10.0 mi WSW 16.1 mph 23.0 mph N/A   Clear
5:35 PM 55.4 °F 39.2 °F 54% 29.69 in 10.0 mi WSW 13.8 mph 26.5 mph N/A   Clear
5:55 PM 53.6 °F 39.2 °F 58% 29.69 in 10.0 mi WSW 12.7 mph 19.6 mph N/A   Clear
6:15 PM 55.4 °F 39.2 °F 54% 29.69 in 10.0 mi West 11.5 mph 19.6 mph N/A   Clear
6:35 PM 55.4 °F 39.2 °F 54% 29.69 in 10.0 mi WSW 9.2 mph - N/A   Clear
6:55 PM 53.6 °F 39.2 °F 58% 29.68 in 10.0 mi WSW 12.7 mph 20.7 mph N/A   Clear
7:15 PM 53.6 °F 39.2 °F 58% 29.68 in 10.0 mi WSW 8.1 mph 16.1 mph N/A   Clear
7:35 PM 53.6 °F 39.2 °F 58% 29.67 in 10.0 mi WSW 8.1 mph - N/A   Clear
7:55 PM 53.6 °F 39.2 °F 58% 29.67 in 10.0 mi WSW 8.1 mph - N/A   Clear
8:15 PM 51.8 °F 39.2 °F 62% 29.66 in 10.0 mi WSW 6.9 mph - N/A   Clear
8:35 PM 50.0 °F 37.4 °F 62% 29.66 in 10.0 mi WSW 6.9 mph - N/A   Clear
8:55 PM 53.6 °F 37.4 °F 54% 29.66 in 10.0 mi WSW 9.2 mph - N/A   Clear
9:15 PM 53.6 °F 37.4 °F 54% 29.66 in 10.0 mi SW 6.9 mph - N/A   Clear
9:35 PM 53.6 °F 37.4 °F 54% 29.65 in 10.0 mi WSW 4.6 mph - N/A   Clear
9:55 PM 50.0 °F 35.6 °F 58% 29.65 in 10.0 mi SW 3.5 mph - N/A   Partly Cloudy
10:15 PM 50.0 °F 35.6 °F 58% 29.65 in 10.0 mi SW 4.6 mph - N/A   Partly Cloudy
10:35 PM 50.0 °F 35.6 °F 58% 29.64 in 10.0 mi Calm Calm - N/A   Clear
10:55 PM 50.0 °F 37.4 °F 62% 29.64 in 10.0 mi Calm Calm - N/A   Scattered Clouds
11:15 PM 50.0 °F 37.4 °F 62% 29.63 in 10.0 mi SSW 5.8 mph - N/A   Mostly Cloudy
11:35 PM 51.8 °F 37.4 °F 58% 29.62 in 10.0 mi SSW 6.9 mph - N/A   Partly Cloudy
11:55 PM 51.8 °F 37.4 °F 58% 29.62 in 10.0 mi SSW 8.1 mph - N/A   Mostly Cloudy